World > North America > United States > New Mexico

Bernalillo, New Mexico Regional Weather

Lat: 35.32N, Lon: 106.56W
Wx Zone: NMZ519
Warning FLW WEATHER ALERT - (More Info. Click Here) Warning
Feedback

Bernalillo, NM Regional Weather

Expires:201907230000;;479110
ASUS45 KABQ 222310
RWRNM 
NEW MEXICO REGIONAL WEATHER ROUNDUP
NATIONAL WEATHER SERVICE ALBUQUERQUE NM
500 PM MDT MON JUL 22 2019

NOTE: "FAIR" MEANS FEW OR NO CLOUDS BELOW 12,000 FEET AGL WITH NO
       SIGNIFICANT WEATHER OR OBSTRUCTIONS TO VISION.

      THIS PRODUCT IS RELEASED AS TWO VERSIONS.  ONE VERSION NEAR
      THE TOP OF THE HOUR CONTAINING PRELIMINARY DATA FROM ALBUQUERQUE
      AND OTHER STATIONS.  A FINAL VERSION WITH ADDITIONAL DATA IS 
      ISSUED ABOUT 10 MINUTES AFTER THE HOUR.
 

NMZ519>523-230000-
CENTRAL VALLEYS/CENTRAL HIGHLANDS
  
CITY           SKY/WX    TMP DP  RH WIND       PRES   REMARKS
ALBUQUERQUE    PTSUNNY   87  50  27 SE15G23   30.23F                  
DOUBLE EAGLE   PTSUNNY   88  50  27 SE12G18   30.27F                  
MORIARTY ARPT  PTSUNNY   80  53  39 SE17G26   30.37F                  
CLINES CORNERS FAIR      74  54  49 SE15G22   30.43F                  
BELEN          FAIR      89  46  22 SE15G21   30.23F                  
SOCORRO        FAIR      90  48  23 E12G18    30.20F                  

$$

SKY/WX - Weather  TMP - Temperature  DP - Dew Point  RH - Relative Humidity
WIND - Wind Direction/Speed PRES - Barometric Pressure VSB - Visibility
WCI - Wind Chill Index E13G22 Wind - East Wind 13 mph/Gusts of 22 mph